Hourly Weather Roundup
Issued by NWS Central Illinois

Home | Current Version | Previous Version | Text Only | Print | Product List | Glossary On
Versions: 1 2 3 4 5 6 7 8 9 10 11 12 13 14 15 16 17 18 19 20 21 22 23 24 25 26 27 28 29 30 31 32 33 34 35 36 37 38 39 40 41 42 43 44 45 46 47 48 49 50
587
NZUS43 KILX 130910
HWRILX

AREA WEATHER ROUNDUP
NATIONAL WEATHER SERVICE, LINCOLN IL
300 AM CST SAT FEB 13 2016


CITY           SKY/WX    TMP DP  RH WIND       PRES   REMARKS
BLOOMINGTON    CLEAR      7  -4  60 N9        30.54R WCI  -6
CHAMPAIGN      PTCLDY     9  -2  61 NW14      30.53R WCI  -7
DANVILLE       PTCLDY     8  -5  56 NW13      30.48R WCI  -8
DECATUR        CLEAR     10   0  63 NW15      30.55R WCI  -7
EFFINGHAM      CLEAR     13   5  70 NW12G17   30.56S WCI  -1
FLORA          CLEAR     16   5  62 N9        30.57R WCI   4
GALESBURG      PTCLDY     5  -3  69 NW7       30.59S WCI  -7
JACKSONVILLE   CLOUDY    12   1  62 NW12      30.60R WCI  -2
LACON          CLEAR      7  -8  51 N9        30.58R WCI  -7
LAWRENCEVILLE  PTCLDY    14   4  64 N20       30.53R WCI  -3
LITCHFIELD     CLEAR     11   1  65 N15       30.57R WCI  -6
$$


CITY           SKY/WX    TMP DP  RH WIND       PRES   REMARKS
LINCOLN        CLEAR     10   1  69 NW5       30.57R WCI   1
MACOMB         PTCLDY     8  -1  66 N12       30.62R WCI  -7
MATTOON        CLEAR     10   2  69 NW12      30.52R WCI  -5
MT CARMEL AP   CLEAR     16   5  62 N12       30.53R WCI   3
OLNEY-NOBLE AP CLEAR     14   3  62 N10G23    30.56R WCI   1
PARIS          CLEAR     10   2  69 N8        30.52S WCI  -2
PEORIA         CLEAR      8  -5  55 N8        30.59R WCI  -4
PONTIAC        CLEAR      8  -5  54 N13       30.57R WCI  -8
RANTOUL        CLEAR     10  -1  60 N10       30.53R WCI  -4
ROBINSON       CLEAR     13   4  67 N15       30.54S WCI  -3
SPRINGFIELD    CLOUDY    10  -1  61 NW8       30.59R WCI  -2
TAYLORVILLE    CLEAR     10   1  67 NW12      30.58R WCI  -4
$$

...REGIONAL REPORTS...


CITY           SKY/WX    TMP DP  RH WIND       PRES   REMARKS
CHICAGO O`HARE PTCLDY     4 -10  52 NW15      30.52R WCI -14
KANKAKEE       CLEAR      7  -8  48 NW14      30.54R WCI  -9
MOLINE         PTCLDY     7  -7  52 N8        30.61R WCI  -6
MOUNT STERLING CLOUDY     7  -1  69 NW9       30.60R WCI  -6
MOUNT VERNON   CLEAR     16   1  53 N3        30.56R
PITTSFIELD     CLOUDY    10   1  69 NW8       30.61S WCI  -3
QUINCY         PTCLDY     6  -2  69 NW8       30.61R WCI  -7
ROCKFORD       CLEAR      4 -10  52 N12       30.58R WCI -12
$$


CITY           SKY/WX    TMP DP  RH WIND       PRES   REMARKS
BURLINGTON     CLOUDY     6  -3  66 NW5       30.61R WCI  -3
CEDAR RAPIDS   CLOUDY     3  -5  69 NW9       30.60S WCI -12
DES MOINES     CLOUDY     2  -5  72 NW7       30.65R WCI -11
KIRKSVILLE     CLOUDY     7  -2  66 N10       30.61S WCI  -8
OTTUMWA        CLOUDY     3  -2  79 NW9       30.64R WCI -12
ST LOUIS       CLEAR     14   3  61 N13       30.60R WCI   0
$$


CITY           SKY/WX    TMP DP  RH WIND       PRES   REMARKS
TERRE HAUTE    PTCLDY    12   1  61 N8        30.51R WCI   0
EVANSVILLE     PTCLDY    18   5  57 N10       30.53R WCI   6
INDIANAPOLIS   CLEAR     11  -2  56 NW13      30.44R WCI  -4
LAFAYETTE      PTCLDY     7  -4  60 NW15      30.49R WCI -10
MADISON        CLEAR      0 -15  49 NW9       30.54R WCI -15
MILWAUKEE      CLEAR      2 -13  49 NW14G24   30.50R WCI -16
$$






USA.gov is the U.S. government's official web portal to all federal, state and local government web resources and services.